START_TIME,STEP,MOV.,M29,t_acc.,H22,t_acc.,H26,t_acc.,H30,t_acc.
1979-07-20 12:00:31.680 ,0,0,0.,24.0,0.,24.0,0.,24.0,0.,24.0
1979-07-20 12:00:55.680 ,1,1,0.,24.0,0.,24.0,0.,24.0,0.,24.0
1979-07-20 12:01:19.680 ,1,0,0.,24.0,0.,24.0,0.,24.0,0.,24.0
1979-07-20 12:01:43.680 ,2,1,0.,24.0,0.,24.0,0.,24.0,0.,24.0
1979-07-20 12:02:07.680 ,2,0,0.,24.0,0.,24.0,0.,24.0,0.,24.0
1979-07-20 12:02:31.680 ,3,1,0.,24.0,0.,24.0,0.,24.0,0.,24.0
1979-07-20 12:02:55.680 ,3,0,0.,24.0,0.,24.0,0.,24.0,0.,24.0
1979-07-20 12:03:19.680 ,4,1,0.,24.0,0.,24.0,0.,24.0,0.,24.0
1979-07-20 12:03:43.680 ,4,0,0.,24.0,0.,24.0,0.,24.0,0.,24.0
1979-07-20 12:04:07.670 ,5,1,0.,24.0,0.,24.0,0.,24.0,0.,24.0
1979-07-20 12:04:31.670 ,5,0,0.,24.0,0.,24.0,0.,24.0,0.,24.0
1979-07-20 12:04:55.670 ,6,1,0.,24.0,0.,24.0,0.,24.0,0.,24.0
1979-07-20 12:05:19.670 ,6,0,0.,24.0,0.,24.0,0.,24.0,0.,24.0
1979-07-20 12:05:43.670 ,7,1,0.,24.0,0.,24.0,0.,24.0,0.,24.0
1979-07-20 12:06:07.670 ,7,0,0.,24.0,0.,24.0,0.,24.0,0.,24.0
1979-07-20 12:06:31.670 ,7,1,0.,24.0,0.,24.0,0.,24.0,0.,24.0
1979-07-20 12:06:55.670 ,7,0,0.,24.0,0.,24.0,0.,24.0,0.,24.0
1979-07-20 12:07:19.670 ,6,1,0.,24.0,0.,24.0,0.,24.0,0.,24.0
1979-07-20 12:07:43.670 ,6,0,0.,24.0,0.,24.0,0.,24.0,0.,24.0
1979-07-20 12:07:43.670 ,6,0,0.,24.0,0.,24.0,0.,24.0,0.,24.0
1979-07-20 12:08:07.670 ,5,1,0.,24.0,0.,24.0,0.,24.0,0.,24.0
1979-07-20 12:08:31.670 ,5,0,0.,24.0,0.,24.0,0.,24.0,0.,24.0
1979-07-20 12:08:55.680 ,4,1,0.,24.0,0.,24.0,0.,24.0,0.,24.0
1979-07-20 12:09:19.680 ,4,0,0.,24.0,0.,24.0,0.,24.0,0.,24.0
1979-07-20 12:09:43.680 ,3,1,0.,24.0,0.,24.0,0.,24.0,0.,24.0
1979-07-20 12:10:07.680 ,3,0,0.,24.0,0.,24.0,0.,24.0,0.,24.0
1979-07-20 12:10:31.680 ,2,1,0.,24.0,0.,24.0,0.,24.0,0.,24.0
1979-07-20 12:10:55.680 ,2,0,0.,24.0,0.,24.0,0.,24.0,0.,24.0
1979-07-20 12:11:19.680 ,1,1,0.,24.0,0.,24.0,0.,24.0,0.,24.0
1979-07-20 12:11:43.680 ,1,0,0.,24.0,0.,24.0,0.,24.0,0.,24.0
1979-07-20 12:12:07.680 ,0,1,0.,24.0,0.,24.0,0.,24.0,0.,24.0
1979-07-20 12:12:31.680 ,0,0,0.,24.0,0.,24.0,0.,24.0,0.,24.0
1979-07-20 12:12:55.680 ,0,1,0.,24.0,0.,24.0,0.,24.0,0.,24.0
1979-07-20 12:13:19.680 ,0,0,0.,24.0,0.,24.0,0.,24.0,0.,24.0
1979-07-20 12:13:43.680 ,1,1,0.,24.0,0.,24.0,0.,24.0,0.,24.0
1979-07-20 12:14:07.680 ,1,0,0.,24.0,0.,24.0,0.,24.0,0.,24.0
1979-07-20 12:14:31.680 ,2,1,0.,24.0,0.,24.0,0.,24.0,0.,24.0
1979-07-20 12:14:55.680 ,2,0,0.,24.0,0.,24.0,0.,24.0,0.,24.0
1979-07-20 12:15:19.680 ,3,1,0.,24.0,0.,24.0,0.,24.0,0.,24.0
1979-07-20 12:15:43.680 ,3,0,0.,24.0,0.,24.0,0.,24.0,0.,24.0
1979-07-20 12:16:07.680 ,4,1,0.,24.0,0.,24.0,0.,24.0,0.,24.0
1979-07-20 12:16:31.680 ,4,0,0.,24.0,0.,24.0,0.,24.0,0.,24.0
1979-07-20 12:16:55.680 ,5,1,0.,24.0,0.,24.0,0.,24.0,0.,24.0
1979-07-20 12:17:19.680 ,5,0,0.,24.0,0.,24.0,0.,24.0,0.,24.0
1979-07-20 12:17:43.680 ,6,1,0.,24.0,0.,24.0,0.,24.0,0.,24.0
1979-07-20 12:18:07.680 ,6,0,0.,24.0,0.,24.0,0.,24.0,0.,24.0
1979-07-20 12:18:31.680 ,7,0,0.,24.0,0.,24.0,0.,24.0,0.,24.0
1979-07-20 12:18:55.680 ,7,0,0.,24.0,0.,24.0,0.,24.0,0.,24.0
1979-07-20 12:19:19.680 ,5,1,0.,24.0,0.,24.0,0.,24.0,0.,24.0
1979-07-20 12:19:43.680 ,1,1,0.,24.0,0.,24.0,0.,24.0,0.,24.0
1979-07-20 12:20:07.680 ,2,1,0.,24.0,0.,24.0,0.,24.0,0.,24.0
1979-07-20 12:20:31.680 ,6,1,0.,24.0,0.,24.0,0.,24.0,0.,24.0
1979-07-20 12:20:55.670 ,5,1,0.,24.0,0.,24.0,0.,24.0,0.,24.0
1979-07-20 12:21:19.670 ,1,1,0.,24.0,0.,24.0,0.,24.0,0.,24.0
1979-07-20 12:21:43.670 ,2,1,0.,24.0,0.,24.0,0.,24.0,0.,24.0
1979-07-20 12:22:07.670 ,6,1,0.,24.0,0.,24.0,0.,24.0,0.,24.0
1979-07-20 12:22:31.670 ,5,1,0.,24.0,0.,24.0,0.,24.0,0.,24.0
1979-07-20 12:22:55.670 ,1,1,0.,24.0,0.,24.0,0.,24.0,0.,24.0
1979-07-20 12:23:19.670 ,2,1,0.,24.0,0.,24.0,0.,24.0,0.,24.0
1979-07-20 12:23:43.670 ,6,1,0.,24.0,0.,24.0,0.,24.0,0.,24.0
1979-07-20 12:24:07.670 ,5,1,0.,24.0,0.,24.0,0.,24.0,0.,24.0
1979-07-20 12:24:31.670 ,1,1,0.,24.0,0.,24.0,0.,24.0,0.,24.0
1979-07-20 12:24:55.670 ,2,1,1.,24.0,0.,24.0,0.,24.0,0.,24.0
1979-07-20 12:25:19.670 ,6,1,0.,24.0,0.,24.0,0.,24.0,0.,24.0
1979-07-20 12:25:43.670 ,5,1,0.,24.0,0.,24.0,0.,24.0,0.,24.0
1979-07-20 12:26:07.670 ,1,1,0.,24.0,0.,24.0,0.,24.0,0.,24.0
1979-07-20 12:26:31.670 ,2,1,0.,24.0,0.,24.0,0.,24.0,0.,24.0
1979-07-20 12:26:55.670 ,6,1,0.,24.0,0.,24.0,0.,24.0,0.,24.0
1979-07-20 12:27:19.670 ,5,1,0.,24.0,0.,24.0,0.,24.0,0.,24.0
1979-07-20 12:27:43.670 ,1,1,0.,24.0,0.,24.0,0.,24.0,0.,24.0
1979-07-20 12:28:07.670 ,2,1,0.,24.0,0.,24.0,0.,24.0,0.,24.0
1979-07-20 12:28:31.670 ,6,1,0.,24.0,0.,24.0,0.,24.0,0.,24.0
1979-07-20 12:28:55.670 ,5,1,0.,24.0,0.,24.0,0.,24.0,0.,24.0
1979-07-20 12:29:19.670 ,1,1,0.,24.0,0.,24.0,0.,24.0,0.,24.0
1979-07-20 12:29:43.670 ,0,0,0.,24.0,0.,24.0,0.,24.0,0.,24.0
1979-07-20 12:30:07.670 ,0,0,0.,24.0,0.,24.0,0.,24.0,0.,24.0
1979-07-20 12:30:31.670 ,5,1,0.,24.0,0.,24.0,0.,24.0,0.,24.0
1979-07-20 12:30:55.670 ,5,0,0.,24.0,0.,24.0,0.,24.0,0.,24.0
1979-07-20 12:31:19.670 ,4,1,0.,24.0,0.,24.0,0.,24.0,0.,24.0
1979-07-20 12:31:43.670 ,4,0,0.,24.0,0.,24.0,0.,24.0,0.,24.0
1979-07-20 12:32:07.670 ,3,1,0.,24.0,0.,24.0,0.,24.0,0.,24.0
1979-07-20 12:32:31.670 ,3,0,0.,24.0,0.,24.0,0.,24.0,0.,24.0
1979-07-20 12:32:55.670 ,2,1,0.,24.0,0.,24.0,0.,24.0,0.,24.0
1979-07-20 12:33:19.670 ,2,0,0.,24.0,0.,24.0,0.,24.0,0.,24.0
1979-07-20 12:33:43.670 ,1,1,0.,24.0,0.,24.0,0.,24.0,0.,24.0
1979-07-20 12:34:07.670 ,1,0,0.,24.0,0.,24.0,0.,24.0,0.,24.0
1979-07-20 12:34:31.670 ,0,1,0.,24.0,0.,24.0,0.,24.0,0.,24.0
1979-07-20 12:34:55.670 ,0,0,0.,24.0,0.,24.0,0.,24.0,0.,24.0
1979-07-20 12:35:19.670 ,0,1,0.,24.0,0.,24.0,0.,24.0,0.,24.0
1979-07-20 12:35:43.670 ,0,0,0.,24.0,0.,24.0,0.,24.0,0.,24.0
1979-07-20 12:36:07.670 ,1,1,0.,24.0,0.,24.0,0.,24.0,0.,24.0
1979-07-20 12:36:31.670 ,1,0,0.,24.0,0.,24.0,0.,24.0,0.,24.0
1979-07-20 12:36:55.670 ,2,1,0.,24.0,0.,24.0,0.,24.0,0.,24.0
1979-07-20 12:37:19.670 ,2,0,0.,24.0,0.,24.0,0.,24.0,0.,24.0
1979-07-20 12:37:43.670 ,3,1,0.,24.0,0.,24.0,0.,24.0,0.,24.0
1979-07-20 12:38:07.670 ,3,0,0.,24.0,0.,24.0,0.,24.0,0.,24.0
1979-07-20 12:38:31.670 ,4,1,0.,24.0,0.,24.0,0.,24.0,0.,24.0
1979-07-20 12:38:55.670 ,4,0,0.,24.0,0.,24.0,0.,24.0,0.,24.0
1979-07-20 12:39:19.670 ,5,1,0.,24.0,0.,24.0,0.,24.0,0.,24.0
1979-07-20 12:39:43.670 ,5,0,0.,24.0,0.,24.0,0.,24.0,0.,24.0
1979-07-20 12:40:07.670 ,6,1,0.,24.0,0.,24.0,0.,24.0,0.,24.0
1979-07-20 12:40:31.670 ,6,0,0.,24.0,0.,24.0,0.,24.0,0.,24.0
1979-07-20 12:40:55.670 ,7,1,0.,24.0,0.,24.0,0.,24.0,0.,24.0
1979-07-20 12:41:19.670 ,7,0,0.,24.0,0.,24.0,0.,24.0,0.,24.0
1979-07-20 12:41:43.670 ,7,1,0.,24.0,0.,24.0,0.,24.0,0.,24.0
1979-07-20 12:42:07.670 ,7,0,0.,24.0,0.,24.0,0.,24.0,0.,24.0
1979-07-20 12:42:31.670 ,6,1,0.,24.0,0.,24.0,0.,24.0,0.,24.0
1979-07-20 12:42:55.670 ,6,0,0.,24.0,0.,24.0,0.,24.0,0.,24.0
1979-07-20 12:43:19.670 ,5,1,0.,24.0,0.,24.0,0.,24.0,0.,24.0
1979-07-20 12:43:43.670 ,5,0,0.,24.0,0.,24.0,0.,24.0,0.,24.0
1979-07-20 12:44:07.670 ,4,1,0.,24.0,0.,24.0,0.,24.0,0.,24.0
1979-07-20 12:44:31.670 ,4,0,0.,24.0,0.,24.0,0.,24.0,0.,24.0
1979-07-20 12:44:55.670 ,3,1,0.,24.0,0.,24.0,0.,24.0,0.,24.0
1979-07-20 12:45:19.670 ,3,0,1.,24.0,0.,24.0,0.,24.0,0.,24.0
1979-07-20 12:45:43.670 ,2,1,0.,24.0,0.,24.0,0.,24.0,0.,24.0
1979-07-20 12:46:07.670 ,2,0,0.,24.0,0.,24.0,0.,24.0,0.,24.0
1979-07-20 12:46:31.670 ,1,1,0.,24.0,0.,24.0,0.,24.0,0.,24.0
1979-07-20 12:46:55.670 ,1,0,0.,24.0,0.,24.0,0.,24.0,0.,24.0
1979-07-20 12:47:19.670 ,0,1,0.,24.0,0.,24.0,0.,24.0,0.,24.0
1979-07-20 12:47:43.670 ,0,0,0.,24.0,0.,24.0,0.,24.0,0.,24.0
1979-07-20 12:48:07.670 ,0,1,0.,24.0,0.,24.0,0.,24.0,0.,24.0
1979-07-20 12:48:31.670 ,0,0,0.,24.0,0.,24.0,0.,24.0,0.,24.0
1979-07-20 12:48:55.670 ,1,1,0.,24.0,0.,24.0,0.,24.0,0.,24.0
1979-07-20 12:49:19.670 ,1,0,0.,24.0,0.,24.0,0.,24.0,0.,24.0
1979-07-20 12:49:43.670 ,2,1,0.,24.0,0.,24.0,0.,24.0,0.,24.0
1979-07-20 12:50:07.670 ,2,0,0.,24.0,0.,24.0,0.,24.0,0.,24.0
1979-07-20 12:50:31.670 ,3,1,0.,24.0,0.,24.0,0.,24.0,0.,24.0
1979-07-20 12:50:55.670 ,3,0,0.,24.0,0.,24.0,0.,24.0,0.,24.0
1979-07-20 12:51:19.670 ,4,1,0.,24.0,0.,24.0,0.,24.0,0.,24.0
1979-07-20 12:51:43.670 ,4,0,0.,24.0,0.,24.0,0.,24.0,0.,24.0
1979-07-20 12:52:07.670 ,5,1,0.,24.0,0.,24.0,0.,24.0,0.,24.0
1979-07-20 12:52:31.670 ,5,0,0.,24.0,0.,24.0,0.,24.0,0.,24.0
1979-07-20 12:52:55.670 ,6,1,0.,24.0,0.,24.0,0.,24.0,0.,24.0
1979-07-20 12:53:19.670 ,6,0,0.,24.0,0.,24.0,0.,24.0,0.,24.0
1979-07-20 12:53:43.670 ,7,1,0.,24.0,0.,24.0,0.,24.0,0.,24.0
1979-07-20 12:54:07.670 ,7,0,0.,24.0,0.,24.0,0.,24.0,0.,24.0
1979-07-20 12:54:31.670 ,7,1,0.,24.0,0.,24.0,0.,24.0,0.,24.0
1979-07-20 12:54:55.670 ,7,0,0.,24.0,0.,24.0,0.,24.0,0.,24.0
1979-07-20 12:55:19.670 ,6,1,0.,24.0,0.,24.0,0.,24.0,0.,24.0
1979-07-20 12:55:43.670 ,6,0,0.,24.0,0.,24.0,0.,24.0,0.,24.0
1979-07-20 12:56:07.670 ,5,1,0.,24.0,0.,24.0,0.,24.0,0.,24.0
1979-07-20 12:56:31.670 ,5,0,0.,24.0,0.,24.0,0.,24.0,0.,24.0
1979-07-20 12:56:55.670 ,4,1,0.,24.0,0.,24.0,0.,24.0,0.,24.0
1979-07-20 12:57:19.670 ,4,0,0.,24.0,0.,24.0,0.,24.0,0.,24.0
1979-07-20 12:57:43.670 ,3,1,0.,24.0,0.,24.0,0.,24.0,0.,24.0
1979-07-20 12:58:07.670 ,3,0,0.,24.0,0.,24.0,0.,24.0,0.,24.0
1979-07-20 12:58:31.670 ,2,1,0.,24.0,0.,24.0,0.,24.0,0.,24.0
1979-07-20 12:58:55.670 ,2,0,0.,24.0,0.,24.0,0.,24.0,0.,24.0
1979-07-20 12:59:19.670 ,1,1,0.,24.0,0.,24.0,0.,24.0,0.,24.0
1979-07-20 12:59:43.670 ,1,0,0.,24.0,0.,24.0,0.,24.0,0.,24.0
1979-07-20 13:00:07.670 ,0,1,0.,24.0,0.,24.0,0.,24.0,0.,24.0
1979-07-20 13:00:31.670 ,0,0,0.,24.0,0.,24.0,0.,24.0,0.,24.0
1979-07-20 13:00:55.670 ,0,1,0.,24.0,0.,24.0,0.,24.0,0.,24.0
1979-07-20 13:01:19.670 ,0,0,0.,24.0,0.,24.0,0.,24.0,0.,24.0
1979-07-20 13:01:43.670 ,1,1,0.,24.0,0.,24.0,0.,24.0,0.,24.0
1979-07-20 13:02:07.670 ,1,0,1.,24.0,0.,24.0,0.,24.0,0.,24.0
1979-07-20 13:02:31.670 ,2,1,0.,24.0,0.,24.0,0.,24.0,0.,24.0
1979-07-20 13:02:55.670 ,2,0,0.,24.0,0.,24.0,0.,24.0,0.,24.0
1979-07-20 13:03:19.670 ,3,1,0.,24.0,0.,24.0,0.,24.0,0.,24.0
1979-07-20 13:03:43.670 ,3,0,0.,24.0,0.,24.0,0.,24.0,0.,24.0
1979-07-20 13:04:07.670 ,4,1,0.,24.0,0.,24.0,0.,24.0,0.,24.0
1979-07-20 13:04:31.670 ,4,0,0.,24.0,0.,24.0,0.,24.0,0.,24.0
1979-07-20 13:04:55.670 ,5,1,0.,24.0,0.,24.0,0.,24.0,0.,24.0
1979-07-20 13:05:19.670 ,5,0,0.,24.0,0.,24.0,0.,24.0,0.,24.0
1979-07-20 13:05:43.670 ,6,1,0.,24.0,0.,24.0,0.,24.0,0.,24.0
1979-07-20 13:06:07.670 ,6,0,0.,24.0,0.,24.0,0.,24.0,0.,24.0
1979-07-20 13:06:31.670 ,7,0,0.,24.0,0.,24.0,0.,24.0,0.,24.0
1979-07-20 13:06:55.670 ,7,0,0.,24.0,0.,24.0,0.,24.0,0.,24.0
1979-07-20 13:07:19.670 ,5,1,0.,24.0,0.,24.0,0.,24.0,0.,24.0
1979-07-20 13:07:43.670 ,1,1,0.,24.0,0.,24.0,0.,24.0,0.,24.0
1979-07-20 13:08:07.670 ,2,1,0.,24.0,0.,24.0,0.,24.0,0.,24.0
1979-07-20 13:08:31.670 ,6,1,0.,24.0,0.,24.0,0.,24.0,0.,24.0
1979-07-20 13:08:55.670 ,5,1,0.,24.0,0.,24.0,0.,24.0,0.,24.0
1979-07-20 13:09:19.670 ,1,1,0.,24.0,0.,24.0,0.,24.0,0.,24.0
1979-07-20 13:09:43.670 ,2,1,0.,24.0,0.,24.0,0.,24.0,0.,24.0
1979-07-20 13:10:07.670 ,6,1,0.,24.0,0.,24.0,0.,24.0,0.,24.0
1979-07-20 13:10:31.670 ,5,1,0.,24.0,0.,24.0,0.,24.0,0.,24.0
1979-07-20 13:10:55.670 ,1,1,0.,24.0,0.,24.0,0.,24.0,0.,24.0
1979-07-20 13:11:19.670 ,2,1,0.,24.0,0.,24.0,0.,24.0,0.,24.0
1979-07-20 13:11:43.670 ,6,1,0.,24.0,0.,24.0,0.,24.0,0.,24.0
1979-07-20 13:12:07.670 ,5,1,0.,24.0,0.,24.0,0.,24.0,0.,24.0
1979-07-20 13:12:31.670 ,1,1,0.,24.0,0.,24.0,0.,24.0,0.,24.0
1979-07-20 13:12:55.670 ,2,1,0.,24.0,0.,24.0,0.,24.0,0.,24.0
1979-07-20 13:13:19.670 ,6,1,0.,24.0,0.,24.0,0.,24.0,0.,24.0
1979-07-20 13:13:43.670 ,5,1,1.,24.0,0.,24.0,0.,24.0,0.,24.0
1979-07-20 13:14:07.670 ,1,1,0.,24.0,0.,24.0,0.,24.0,0.,24.0
1979-07-20 13:14:31.670 ,2,1,0.,24.0,0.,24.0,0.,24.0,0.,24.0
1979-07-20 13:14:55.670 ,6,1,0.,24.0,0.,24.0,0.,24.0,0.,24.0
1979-07-20 13:15:19.670 ,5,1,0.,24.0,0.,24.0,0.,24.0,0.,24.0
1979-07-20 13:15:43.670 ,1,1,0.,24.0,0.,24.0,0.,24.0,0.,24.0
1979-07-20 13:16:07.670 ,2,1,0.,24.0,0.,24.0,0.,24.0,0.,24.0
1979-07-20 13:16:31.670 ,6,1,0.,24.0,0.,24.0,0.,24.0,0.,24.0
1979-07-20 13:16:55.670 ,5,1,0.,24.0,0.,24.0,0.,24.0,0.,24.0
1979-07-20 13:17:19.670 ,1,1,0.,24.0,0.,24.0,0.,24.0,0.,24.0
1979-07-20 13:17:43.670 ,0,0,0.,24.0,0.,24.0,0.,24.0,0.,24.0
1979-07-20 13:18:07.670 ,0,0,0.,24.0,0.,24.0,0.,24.0,0.,24.0
1979-07-20 13:18:31.670 ,5,1,0.,24.0,0.,24.0,0.,24.0,0.,24.0
1979-07-20 13:18:55.670 ,5,0,0.,24.0,0.,24.0,0.,24.0,0.,24.0
1979-07-20 13:19:19.670 ,4,1,0.,24.0,0.,24.0,0.,24.0,0.,24.0
1979-07-20 13:19:43.670 ,4,0,0.,24.0,0.,24.0,0.,24.0,0.,24.0
1979-07-20 13:20:07.670 ,3,1,0.,24.0,0.,24.0,0.,24.0,0.,24.0
1979-07-20 13:20:31.670 ,3,0,0.,24.0,0.,24.0,0.,24.0,0.,24.0
1979-07-20 13:20:55.670 ,2,1,0.,24.0,0.,24.0,0.,24.0,0.,24.0
1979-07-20 13:21:19.670 ,2,0,0.,24.0,0.,24.0,0.,24.0,0.,24.0
1979-07-20 13:21:43.670 ,1,1,0.,24.0,0.,24.0,0.,24.0,0.,24.0
1979-07-20 13:22:07.670 ,1,0,0.,24.0,0.,24.0,0.,24.0,0.,24.0
1979-07-20 13:22:31.670 ,0,1,0.,24.0,0.,24.0,0.,24.0,0.,24.0
1979-07-20 13:22:55.670 ,0,0,0.,24.0,0.,24.0,0.,24.0,0.,24.0
1979-07-20 13:23:19.670 ,0,1,0.,24.0,0.,24.0,0.,24.0,0.,24.0
1979-07-20 13:23:43.670 ,0,0,0.,24.0,0.,24.0,0.,24.0,0.,24.0
1979-07-20 13:24:07.670 ,1,1,0.,24.0,0.,24.0,0.,24.0,0.,24.0
1979-07-20 13:24:31.670 ,1,0,0.,24.0,0.,24.0,0.,24.0,0.,24.0
1979-07-20 13:24:55.670 ,2,1,0.,24.0,0.,24.0,0.,24.0,0.,24.0
1979-07-20 13:25:19.670 ,2,0,0.,24.0,0.,24.0,0.,24.0,0.,24.0
1979-07-20 13:25:43.670 ,3,1,0.,24.0,0.,24.0,0.,24.0,0.,24.0
1979-07-20 13:26:07.670 ,3,0,0.,24.0,0.,24.0,0.,24.0,0.,24.0
1979-07-20 13:26:31.670 ,4,1,0.,24.0,0.,24.0,0.,24.0,0.,24.0
1979-07-20 13:26:55.670 ,4,0,0.,24.0,0.,24.0,0.,24.0,0.,24.0
1979-07-20 13:27:19.670 ,5,1,0.,24.0,0.,24.0,0.,24.0,0.,24.0
1979-07-20 13:27:43.670 ,5,0,0.,24.0,0.,24.0,0.,24.0,0.,24.0
1979-07-20 13:28:07.670 ,6,1,0.,24.0,0.,24.0,0.,24.0,0.,24.0
1979-07-20 13:28:31.670 ,6,0,0.,24.0,0.,24.0,0.,24.0,0.,24.0
1979-07-20 13:28:55.670 ,7,1,0.,24.0,0.,24.0,0.,24.0,0.,24.0
1979-07-20 13:29:19.670 ,7,0,0.,24.0,0.,24.0,0.,24.0,0.,24.0
1979-07-20 13:29:43.670 ,7,1,0.,24.0,0.,24.0,0.,24.0,0.,24.0
1979-07-20 13:30:07.670 ,7,0,0.,24.0,0.,24.0,0.,24.0,0.,24.0
1979-07-20 13:30:31.670 ,6,1,0.,24.0,0.,24.0,0.,24.0,0.,24.0
1979-07-20 13:30:55.670 ,6,0,0.,24.0,0.,24.0,0.,24.0,0.,24.0
1979-07-20 13:31:19.670 ,5,1,0.,24.0,0.,24.0,0.,24.0,0.,24.0
1979-07-20 13:31:43.670 ,5,0,0.,24.0,0.,24.0,0.,24.0,0.,24.0
1979-07-20 13:32:07.670 ,4,1,0.,24.0,0.,24.0,0.,24.0,0.,24.0
1979-07-20 13:32:31.670 ,4,0,0.,24.0,0.,24.0,0.,24.0,0.,24.0
1979-07-20 13:32:55.670 ,3,1,0.,24.0,0.,24.0,0.,24.0,0.,24.0
1979-07-20 13:33:19.670 ,3,0,0.,24.0,0.,24.0,0.,24.0,0.,24.0
1979-07-20 13:33:43.670 ,2,1,0.,24.0,0.,24.0,0.,24.0,0.,24.0
1979-07-20 13:34:07.670 ,2,0,0.,24.0,0.,24.0,0.,24.0,0.,24.0
1979-07-20 13:34:31.670 ,1,1,0.,24.0,0.,24.0,0.,24.0,0.,24.0
1979-07-20 13:34:55.670 ,1,0,0.,24.0,0.,24.0,0.,24.0,1.,24.0
1979-07-20 13:35:19.670 ,0,1,0.,24.0,0.,24.0,0.,24.0,0.,24.0
1979-07-20 13:35:43.670 ,0,0,0.,24.0,0.,24.0,0.,24.0,0.,24.0
1979-07-20 13:36:07.670 ,0,0,0.,24.0,0.,24.0,0.,24.0,0.,24.0
1979-07-20 13:36:31.670 ,0,0,0.,24.0,0.,24.0,0.,24.0,0.,24.0
1979-07-20 13:36:55.670 ,1,1,0.,24.0,0.,24.0,0.,24.0,0.,24.0
1979-07-20 13:37:19.670 ,1,0,0.,24.0,0.,24.0,0.,24.0,0.,24.0
1979-07-20 13:37:43.670 ,2,1,0.,24.0,0.,24.0,0.,24.0,0.,24.0
1979-07-20 13:38:07.670 ,2,0,0.,24.0,0.,24.0,0.,24.0,0.,24.0
1979-07-20 13:38:31.670 ,3,1,0.,24.0,0.,24.0,0.,24.0,0.,24.0
1979-07-20 13:38:55.670 ,3,0,0.,24.0,0.,24.0,0.,24.0,0.,24.0
1979-07-20 13:39:19.670 ,4,1,1.,24.0,0.,24.0,0.,24.0,0.,24.0
1979-07-20 13:39:43.670 ,4,0,0.,24.0,0.,24.0,0.,24.0,0.,24.0
1979-07-20 13:40:07.670 ,5,1,0.,24.0,0.,24.0,0.,24.0,0.,24.0
1979-07-20 13:40:31.670 ,5,0,0.,24.0,0.,24.0,0.,24.0,0.,24.0
1979-07-20 13:40:55.670 ,6,1,0.,24.0,0.,24.0,0.,24.0,0.,24.0
1979-07-20 13:41:19.670 ,6,0,0.,24.0,0.,24.0,0.,24.0,0.,24.0
1979-07-20 13:41:43.670 ,7,1,0.,24.0,0.,24.0,0.,24.0,0.,24.0
1979-07-20 13:42:07.670 ,7,0,0.,24.0,0.,24.0,0.,24.0,0.,24.0
1979-07-20 13:42:31.670 ,7,1,0.,24.0,0.,24.0,0.,24.0,0.,24.0
1979-07-20 13:42:55.670 ,7,0,0.,24.0,0.,24.0,0.,24.0,0.,24.0
1979-07-20 13:43:19.670 ,6,1,0.,24.0,0.,24.0,0.,24.0,0.,24.0
1979-07-20 13:43:43.670 ,6,0,0.,24.0,0.,24.0,0.,24.0,0.,24.0
1979-07-20 13:44:07.670 ,5,1,0.,24.0,0.,24.0,0.,24.0,0.,24.0
1979-07-20 13:44:31.670 ,5,0,0.,24.0,0.,24.0,0.,24.0,0.,24.0
1979-07-20 13:44:55.670 ,4,1,0.,24.0,0.,24.0,0.,24.0,0.,24.0
1979-07-20 13:45:19.670 ,4,0,0.,24.0,0.,24.0,0.,24.0,0.,24.0
1979-07-20 13:45:43.670 ,3,1,0.,24.0,0.,24.0,0.,24.0,0.,24.0
1979-07-20 13:46:07.670 ,3,0,0.,24.0,0.,24.0,0.,24.0,0.,24.0
1979-07-20 13:46:31.670 ,2,1,1.,24.0,0.,24.0,0.,24.0,0.,24.0
1979-07-20 13:46:55.670 ,2,0,0.,24.0,0.,24.0,0.,24.0,0.,24.0
1979-07-20 13:47:19.670 ,1,1,0.,24.0,0.,24.0,0.,24.0,0.,24.0
1979-07-20 13:47:43.670 ,1,0,0.,24.0,0.,24.0,0.,24.0,0.,24.0
1979-07-20 13:48:07.670 ,0,1,0.,24.0,0.,24.0,0.,24.0,0.,24.0
1979-07-20 13:48:31.670 ,0,0,0.,24.0,0.,24.0,0.,24.0,0.,24.0
1979-07-20 13:48:55.670 ,0,1,0.,24.0,0.,24.0,0.,24.0,0.,24.0
1979-07-20 13:49:19.670 ,0,0,0.,24.0,0.,24.0,0.,24.0,0.,24.0
1979-07-20 13:49:43.670 ,1,1,0.,24.0,0.,24.0,0.,24.0,0.,24.0
1979-07-20 13:50:07.670 ,1,0,0.,24.0,0.,24.0,0.,24.0,0.,24.0
1979-07-20 13:50:31.670 ,2,1,0.,24.0,0.,24.0,0.,24.0,0.,24.0
1979-07-20 13:50:55.670 ,2,0,0.,24.0,0.,24.0,0.,24.0,0.,24.0
1979-07-20 13:51:19.670 ,3,1,0.,24.0,0.,24.0,0.,24.0,0.,24.0
1979-07-20 13:51:43.670 ,3,0,1.,24.0,0.,24.0,0.,24.0,0.,24.0
1979-07-20 13:52:07.670 ,4,1,0.,24.0,0.,24.0,0.,24.0,0.,24.0
1979-07-20 13:52:31.670 ,4,0,0.,24.0,0.,24.0,0.,24.0,0.,24.0
1979-07-20 13:52:55.670 ,5,1,0.,24.0,0.,24.0,0.,24.0,0.,24.0
1979-07-20 13:53:19.670 ,5,0,0.,24.0,0.,24.0,0.,24.0,0.,24.0
1979-07-20 13:53:43.670 ,6,1,0.,24.0,0.,24.0,0.,24.0,0.,24.0
1979-07-20 13:54:07.670 ,6,0,0.,24.0,0.,24.0,0.,24.0,0.,24.0
1979-07-20 13:54:31.670 ,7,0,0.,24.0,0.,24.0,0.,24.0,0.,24.0
1979-07-20 13:54:55.670 ,7,0,0.,24.0,0.,24.0,0.,24.0,0.,24.0
1979-07-20 13:55:19.670 ,5,1,0.,24.0,0.,24.0,0.,24.0,0.,24.0
1979-07-20 13:55:43.670 ,1,1,0.,24.0,0.,24.0,0.,24.0,0.,24.0
1979-07-20 13:56:07.670 ,2,1,0.,24.0,0.,24.0,0.,24.0,0.,24.0
1979-07-20 13:56:31.670 ,6,1,0.,24.0,0.,24.0,0.,24.0,0.,24.0
1979-07-20 13:56:55.670 ,5,1,0.,24.0,0.,24.0,0.,24.0,0.,24.0
1979-07-20 13:57:19.670 ,1,1,0.,24.0,0.,24.0,0.,24.0,0.,24.0
1979-07-20 13:57:43.670 ,2,1,0.,24.0,0.,24.0,0.,24.0,0.,24.0
1979-07-20 13:58:07.670 ,6,1,0.,24.0,0.,24.0,0.,24.0,0.,24.0
1979-07-20 13:58:31.670 ,5,1,1.,24.0,0.,24.0,0.,24.0,0.,24.0
1979-07-20 13:58:55.670 ,1,1,0.,24.0,0.,24.0,0.,24.0,0.,24.0
1979-07-20 13:59:19.670 ,2,1,0.,24.0,0.,24.0,0.,24.0,0.,24.0
1979-07-20 13:59:43.670 ,6,1,0.,24.0,0.,24.0,0.,24.0,0.,24.0
1979-07-20 14:00:07.670 ,5,1,0.,24.0,0.,24.0,0.,24.0,0.,24.0
1979-07-20 14:00:31.670 ,1,1,0.,24.0,0.,24.0,0.,24.0,0.,24.0
1979-07-20 14:00:55.670 ,2,1,0.,24.0,0.,24.0,0.,24.0,0.,24.0
1979-07-20 14:01:19.670 ,6,1,0.,24.0,0.,24.0,0.,24.0,0.,24.0
1979-07-20 14:01:43.670 ,5,1,0.,24.0,0.,24.0,0.,24.0,0.,24.0
1979-07-20 14:02:07.670 ,1,1,0.,24.0,0.,24.0,0.,24.0,0.,24.0
1979-07-20 14:02:31.670 ,2,1,0.,24.0,0.,24.0,0.,24.0,0.,24.0
1979-07-20 14:02:55.670 ,6,1,0.,24.0,0.,24.0,0.,24.0,0.,24.0
1979-07-20 14:03:19.670 ,5,1,0.,24.0,0.,24.0,0.,24.0,0.,24.0
1979-07-20 14:03:43.670 ,1,1,0.,24.0,0.,24.0,0.,24.0,0.,24.0
1979-07-20 14:04:07.670 ,2,1,0.,24.0,0.,24.0,0.,24.0,0.,24.0
1979-07-20 14:04:31.670 ,6,1,0.,24.0,0.,24.0,0.,24.0,0.,24.0
1979-07-20 14:04:55.670 ,5,1,0.,24.0,0.,24.0,0.,24.0,0.,24.0
1979-07-20 14:05:19.670 ,1,1,0.,24.0,0.,24.0,0.,24.0,0.,24.0
1979-07-20 14:05:43.670 ,0,0,0.,24.0,0.,24.0,0.,24.0,0.,24.0
1979-07-20 14:06:07.670 ,0,0,0.,24.0,0.,24.0,0.,24.0,0.,24.0
1979-07-20 14:06:31.670 ,5,1,0.,24.0,0.,24.0,0.,24.0,0.,24.0
1979-07-20 14:06:55.670 ,5,0,0.,24.0,0.,24.0,0.,24.0,0.,24.0
1979-07-20 14:07:19.670 ,4,1,0.,24.0,0.,24.0,0.,24.0,0.,24.0
1979-07-20 14:07:43.670 ,4,0,0.,24.0,0.,24.0,0.,24.0,0.,24.0
1979-07-20 14:08:07.670 ,3,1,0.,24.0,0.,24.0,0.,24.0,0.,24.0
1979-07-20 14:08:31.670 ,3,0,0.,24.0,0.,24.0,0.,24.0,0.,24.0
1979-07-20 14:08:55.670 ,2,1,0.,24.0,0.,24.0,0.,24.0,0.,24.0
1979-07-20 14:09:19.670 ,2,0,0.,24.0,0.,24.0,0.,24.0,0.,24.0
1979-07-20 14:09:43.670 ,1,1,0.,24.0,0.,24.0,0.,24.0,0.,24.0
1979-07-20 14:10:07.670 ,1,0,0.,24.0,0.,24.0,0.,24.0,0.,24.0
1979-07-20 14:10:31.670 ,0,1,0.,24.0,0.,24.0,0.,24.0,0.,24.0
1979-07-20 14:10:55.670 ,0,0,0.,24.0,0.,24.0,0.,24.0,0.,24.0
1979-07-20 14:11:19.670 ,0,1,0.,24.0,0.,24.0,0.,24.0,0.,24.0
1979-07-20 14:11:43.670 ,0,0,0.,24.0,0.,24.0,0.,24.0,0.,24.0
1979-07-20 14:12:07.670 ,1,1,0.,24.0,0.,24.0,0.,24.0,0.,24.0
1979-07-20 14:12:31.670 ,1,0,0.,24.0,0.,24.0,0.,24.0,0.,24.0
1979-07-20 14:12:55.670 ,2,1,0.,24.0,0.,24.0,0.,24.0,0.,24.0
1979-07-20 14:13:19.670 ,2,0,0.,24.0,0.,24.0,0.,24.0,0.,24.0
1979-07-20 14:13:43.670 ,3,1,0.,24.0,0.,24.0,0.,24.0,0.,24.0
1979-07-20 14:14:07.670 ,3,0,0.,24.0,0.,24.0,0.,24.0,0.,24.0
1979-07-20 14:14:31.670 ,4,1,0.,24.0,0.,24.0,0.,24.0,0.,24.0
1979-07-20 14:14:55.670 ,4,0,0.,24.0,0.,24.0,0.,24.0,0.,24.0
1979-07-20 14:15:19.670 ,5,1,0.,24.0,0.,24.0,0.,24.0,0.,24.0
1979-07-20 14:15:43.670 ,5,0,0.,24.0,0.,24.0,0.,24.0,0.,24.0
1979-07-20 14:16:07.670 ,6,1,0.,24.0,0.,24.0,0.,24.0,0.,24.0
1979-07-20 14:16:31.670 ,6,0,0.,24.0,0.,24.0,0.,24.0,0.,24.0
1979-07-20 14:16:55.670 ,7,1,0.,24.0,0.,24.0,0.,24.0,0.,24.0
1979-07-20 14:17:19.670 ,7,0,0.,24.0,0.,24.0,0.,24.0,0.,24.0
1979-07-20 14:17:43.670 ,7,1,0.,24.0,0.,24.0,0.,24.0,0.,24.0
1979-07-20 14:18:07.670 ,7,0,0.,24.0,0.,24.0,0.,24.0,0.,24.0
1979-07-20 14:18:31.670 ,6,1,0.,24.0,0.,24.0,0.,24.0,0.,24.0
1979-07-20 14:18:55.670 ,6,0,0.,24.0,0.,24.0,0.,24.0,0.,24.0
1979-07-20 14:19:19.670 ,5,1,0.,24.0,0.,24.0,0.,24.0,0.,24.0
1979-07-20 14:19:43.670 ,5,0,0.,24.0,0.,24.0,0.,24.0,0.,24.0
1979-07-20 14:20:07.670 ,4,1,0.,24.0,0.,24.0,0.,24.0,0.,24.0
1979-07-20 14:20:31.670 ,4,0,0.,24.0,0.,24.0,0.,24.0,0.,24.0
1979-07-20 14:20:55.670 ,3,1,0.,24.0,0.,24.0,0.,24.0,0.,24.0
1979-07-20 14:21:19.670 ,3,0,0.,24.0,0.,24.0,0.,24.0,0.,24.0
1979-07-20 14:21:43.670 ,2,1,0.,24.0,0.,24.0,0.,24.0,0.,24.0
1979-07-20 14:22:07.670 ,2,0,0.,24.0,0.,24.0,0.,24.0,0.,24.0
1979-07-20 14:22:31.670 ,1,1,0.,24.0,0.,24.0,0.,24.0,0.,24.0
1979-07-20 14:22:55.670 ,1,0,0.,24.0,0.,24.0,0.,24.0,0.,24.0
1979-07-20 14:23:19.670 ,0,1,0.,24.0,0.,24.0,0.,24.0,0.,24.0
1979-07-20 14:23:43.670 ,0,0,0.,24.0,0.,24.0,0.,24.0,0.,24.0
1979-07-20 14:24:07.670 ,0,1,0.,24.0,0.,24.0,0.,24.0,0.,24.0
1979-07-20 14:24:31.670 ,0,0,0.,24.0,0.,24.0,0.,24.0,0.,24.0
1979-07-20 14:24:55.670 ,1,1,0.,24.0,0.,24.0,0.,24.0,0.,24.0
1979-07-20 14:25:19.670 ,1,0,0.,24.0,0.,24.0,0.,24.0,0.,24.0
1979-07-20 14:25:43.670 ,2,1,0.,24.0,0.,24.0,0.,24.0,0.,24.0
1979-07-20 14:26:07.670 ,2,0,0.,24.0,0.,24.0,0.,24.0,0.,24.0
1979-07-20 14:26:31.670 ,3,1,0.,24.0,0.,24.0,0.,24.0,0.,24.0
1979-07-20 14:26:55.670 ,3,0,0.,24.0,0.,24.0,0.,24.0,0.,24.0
1979-07-20 14:27:19.670 ,4,1,0.,24.0,0.,24.0,0.,24.0,0.,24.0
1979-07-20 14:27:43.670 ,4,0,0.,24.0,0.,24.0,0.,24.0,0.,24.0
1979-07-20 14:28:07.670 ,5,1,0.,24.0,0.,24.0,0.,24.0,0.,24.0
1979-07-20 14:28:31.670 ,5,0,1.,24.0,0.,24.0,0.,24.0,0.,24.0
1979-07-20 14:28:55.670 ,6,1,0.,24.0,0.,24.0,0.,24.0,0.,24.0
1979-07-20 14:29:19.670 ,6,0,0.,24.0,0.,24.0,0.,24.0,0.,24.0
1979-07-20 14:29:43.670 ,7,1,0.,24.0,0.,24.0,0.,24.0,0.,24.0
1979-07-20 14:30:07.670 ,7,0,0.,24.0,0.,24.0,0.,24.0,0.,24.0
1979-07-20 14:30:31.670 ,7,1,0.,24.0,0.,24.0,0.,24.0,0.,24.0
1979-07-20 14:30:55.670 ,7,0,0.,24.0,0.,24.0,0.,24.0,0.,24.0
1979-07-20 14:31:19.670 ,6,1,0.,24.0,0.,24.0,0.,24.0,0.,24.0
1979-07-20 14:31:43.670 ,6,0,0.,24.0,0.,24.0,0.,24.0,0.,24.0
1979-07-20 14:32:07.670 ,5,1,0.,24.0,0.,24.0,0.,24.0,0.,24.0
1979-07-20 14:32:31.670 ,5,0,0.,24.0,0.,24.0,0.,24.0,0.,24.0
1979-07-20 14:32:55.670 ,4,1,0.,24.0,0.,24.0,0.,24.0,0.,24.0
1979-07-20 14:33:19.670 ,4,0,0.,24.0,0.,24.0,0.,24.0,0.,24.0
1979-07-20 14:33:43.670 ,3,1,0.,24.0,0.,24.0,0.,24.0,0.,24.0
1979-07-20 14:34:07.670 ,3,0,0.,24.0,0.,24.0,0.,24.0,0.,24.0